Regional Weather Roundup
Issued by NWS

Home | Current Version | Previous Version | Text Only | Print | Product List | Glossary Off
Versions: 1 2 3 4 5 6 7 8 9 10 11 12 13 14 15 16 17 18 19 20 21 22 23 24 25 26 27 28 29 30 31 32 33 34 35 36 37 38 39 40 41 42 43 44 45 46 47 48 49 50

000
ASUS43 KBIS 292102
RWRND

NORTH DAKOTA REGIONAL WEATHER ROUNDUP
NATIONAL WEATHER SERVICE BISMARCK ND
400 PM CDT WED MAR 29 2017

NOTE: "FAIR" INDICATES FEW OR NO CLOUDS BELOW 12,000 FEET WITH NO
SIGNIFICANT WEATHER AND/OR OBSTRUCTIONS TO VISIBILITY.


NDZ001>003-009>011-017-292200-
NORTHWEST NORTH DAKOTA

CITY           SKY/WX    TMP DP  RH WIND       PRES   REMARKS
WILLISTON      FAIR      62  33  33 W16G23    29.91F
MINOT          PTSUNNY   61  38  42 S18G24    29.92F
MINOT AFB      CLOUDY    57  42  56 SW12      29.91F
$$

NDZ018>021-031>035-040>046-292200-
SOUTHWEST NORTH DAKOTA

CITY           SKY/WX    TMP DP  RH WIND       PRES   REMARKS
BISMARCK       CLOUDY    61  38  42 S15G25    29.98F
DICKINSON      CLOUDY    62  28  27 SW16      29.91F
GARRISON         N/A     59  40  49 S13       29.93F
HETTINGER ARPT PTSUNNY   61  33  35 SW12      29.97F
$$

NDZ004>008-012>016-024-026-027-054-292200-
NORTHEAST NORTH DAKOTA

CITY           SKY/WX    TMP DP  RH WIND       PRES   REMARKS
GRAND FORKS    MOSUNNY   61  47  59 S14       30.04F
GRND FRKS AFB  SUNNY     60  44  54 SW10      30.04F
DEVILS LAKE    CLOUDY    58  38  47 S16       30.00F
$$

NDZ022-023-025-028>030-036>039-047>053-292200-
SOUTHEAST NORTH DAKOTA

CITY           SKY/WX    TMP DP  RH WIND       PRES   REMARKS
FARGO          MOSUNNY   61  41  47 S15G22    30.07F
JAMESTOWN      FAIR      62  34  35 S16       30.01F
$$





USA.gov is the U.S. government's official web portal to all federal, state and local government web resources and services.